Hulianwang W. Digui 11-05

operational
NORAD ID: 65821 Int'l Des: 2025-220 Owner: ZXW Country: CN Constellation: xingwang
LEOCIRCULARPOLAR

About Hulianwang W. Digui 11-05

Description loading...

Live Position

Loading 3D Globe...

Upcoming Passes

Altitude History

Altitude vs Time

uPlot chart will show altitude changes over time

Two-Line Element Set

1 65821U 25220E 25298.28837011 -.00000122 00000-0 -20778-3 0 9993
2 65821 86.4934 123.3806 0001298 86.9130 273.2169 13.52722641 3790
Epoch: Oct 25, 2025 • Age: 9 hours

Current Status

Altitude 1073.8 km
Velocity 7.32 km/s
Sub-Earth Point 71.67°N, 13.39°E
Launch Date Sep 27, 2025
Age 28 days
Type other

Technical Details

Classification Payload
Mass 800.00 kg
Dry Mass 800.00 kg
Total Mass 800.00 kg
Length 3.00 m
Diameter 1.00 m
Span 10.00 m
Shape Box + 2 Pan
Manufacturer SECM
Bus Type Guowang S
Phase Status In Orbit
Owner/State ZXW/CN

Large Constellations

Loading constellations...